Date String (YYYY-MM-DD hh:mm:ss) UTC,Instrument flags,absolute air pressure of the measurement (hPa),sample flow rate (lpm),inlet stack bypass flow (lpm),air temperature of the measurement (°C),ambient temperature measured by the external sensor (°C),aerosol sample conditioner tube jacket temperature (°C),OPC LED temperature (°C),internal box temperature (°C),relative humidity of the measurement (%),span deviation,mass concentration of particles derived from Lorenz-Mie calculation of OPC scattering (μg/m³),mass concentration of particles derived from Lorenz-Mie calculation of OPC scattering (μg/m³),mass concentration of particles derived from Lorenz-Mie calculation of OPC scattering (μg/m³)
DateTimeUTC,F1_M11,P_M11,Q1_M11,Q2_M11,T1_M11,T2_M11,T3_M11,T4_M11,T5_M11,U1_M11,ZSPAN_M11,X0_M11,X2_M11,X1_M11
2023-07-27 02:00:00,SystemResetWarning,0833.8,5.00,000.00,028.9,025.5,000.0,037.0,030.3,31.3,0000.0,0009.39,0004.33,0003.57
2023-07-27 02:01:00,SystemResetWarning,0833.9,5.01,000.00,028.8,025.6,000.0,037.0,030.1,31.5,0000.0,0009.48,0004.33,0003.57
2023-07-27 02:02:00,SystemResetWarning,0833.8,5.00,000.00,028.8,025.9,000.0,037.1,030.2,31.5,0000.0,0009.49,0004.30,0003.57
2023-07-27 02:03:00,SystemResetWarning,0833.9,4.99,000.00,028.8,026.3,000.0,037.1,030.3,31.4,0000.0,0009.51,0004.31,0003.58
2023-07-27 02:04:00,SystemResetWarning,0833.9,5.00,000.00,028.8,026.7,000.0,037.1,030.4,31.3,0000.0,0009.74,0004.34,0003.59
2023-07-27 02:05:00,SystemResetWarning,0834.0,5.00,000.00,028.8,027.1,000.0,037.2,030.5,31.2,0000.0,0009.42,0004.34,0003.59
2023-07-27 02:06:00,SystemResetWarning,0833.9,5.01,000.00,028.9,027.4,000.0,037.2,030.6,31.2,0000.0,0008.75,0004.35,0003.59
2023-07-27 02:07:00,SystemResetWarning,0834.0,5.00,000.00,028.9,027.4,000.0,037.2,030.7,31.2,0000.0,0008.87,0004.38,0003.59
2023-07-27 02:08:00,SystemResetWarning,0833.9,4.99,000.00,028.9,026.2,000.0,037.1,030.5,31.2,0000.0,0009.23,0004.38,0003.58
2023-07-27 02:09:00,SystemResetWarning,0834.0,5.01,000.00,028.9,025.4,000.0,037.0,030.3,31.3,0000.0,0009.74,0004.38,0003.58
2023-07-27 02:10:00,SystemResetWarning,0834.0,5.02,000.00,028.8,025.5,000.0,037.0,030.1,31.3,0000.0,0009.76,0004.36,0003.56
2023-07-27 02:11:00,SystemResetWarning,0834.0,5.00,000.00,028.8,025.8,000.0,037.1,030.2,31.4,0000.0,0010.19,0004.36,0003.55
2023-07-27 02:12:00,SystemResetWarning,0834.0,5.00,000.00,028.8,026.3,000.0,037.1,030.3,31.6,0000.0,0010.17,0004.33,0003.54
2023-07-27 02:13:00,SystemResetWarning,0834.1,4.99,000.00,028.8,026.7,000.0,037.1,030.4,31.4,0000.0,0010.27,0004.35,0003.54
2023-07-27 02:14:00,SystemResetWarning,0834.2,5.00,000.00,028.8,027.0,000.0,037.2,030.5,31.4,0000.0,0010.30,0004.39,0003.54
2023-07-27 02:15:00,SystemResetWarning,0834.3,5.00,000.00,028.9,027.3,000.0,037.2,030.6,31.4,0000.0,0010.08,0004.36,0003.54
2023-07-27 02:16:00,SystemResetWarning,0834.5,4.99,000.00,028.9,027.5,000.0,037.2,030.7,31.4,0000.0,0009.88,0004.37,0003.54
2023-07-27 02:17:00,SystemResetWarning,0834.5,4.98,000.00,028.9,026.2,000.0,037.1,030.5,31.3,0000.0,0009.93,0004.41,0003.54
2023-07-27 02:18:00,SystemResetWarning,0834.5,5.01,000.00,028.9,025.4,000.0,037.0,030.4,32.1,0000.0,0009.92,0004.46,0003.54
2023-07-27 02:19:00,SystemResetWarning,0834.5,5.01,000.00,028.8,025.5,000.0,037.0,030.2,34.2,0000.0,0009.88,0004.48,0003.54
2023-07-27 02:20:00,SystemResetWarning,0834.5,4.97,000.00,028.8,025.8,000.0,037.1,030.2,35.2,0000.0,0009.15,0004.49,0003.53
2023-07-27 02:21:00,SystemResetWarning,0834.5,5.05,000.00,028.9,026.2,000.0,037.1,030.4,34.9,0000.0,0009.26,0004.53,0003.53
2023-07-27 02:22:00,SystemResetWarning,0834.5,4.96,000.00,029.1,026.6,000.0,037.2,030.5,34.6,0000.0,0009.81,0004.56,0003.53
2023-07-27 02:23:00,SystemResetWarning,0834.8,5.02,000.00,029.2,027.0,000.0,037.2,030.6,34.7,0000.0,0010.24,0004.59,0003.54
2023-07-27 02:24:00,SystemResetWarning,0835.1,5.00,000.00,029.3,027.3,000.0,037.3,030.7,34.7,0000.0,0010.21,0004.58,0003.55
2023-07-27 02:25:00,SystemResetWarning,0835.1,4.99,000.00,029.4,027.5,000.0,037.3,030.8,34.4,0000.0,0010.51,0004.54,0003.55
2023-07-27 02:26:00,SystemResetWarning,0834.7,4.99,000.00,029.5,027.2,000.0,037.3,030.8,33.8,0000.0,0010.55,0004.56,0003.55
2023-07-27 02:27:00,SystemResetWarning,0835.1,5.00,000.00,029.5,025.5,000.0,037.3,030.5,33.8,0000.0,0010.50,0004.55,0003.54
2023-07-27 02:28:00,SystemResetWarning,0834.9,5.00,000.00,029.4,024.6,000.0,037.2,030.3,33.7,0000.0,0010.42,0004.52,0003.54
2023-07-27 02:29:00,SystemResetWarning,0834.7,5.01,000.00,029.3,024.6,000.0,037.2,030.1,33.8,0000.0,0010.24,0004.46,0003.54
2023-07-27 02:30:00,SystemResetWarning,0834.9,5.00,000.00,029.2,025.0,000.0,037.3,030.0,34.1,0000.0,0010.54,0004.48,0003.55
2023-07-27 02:31:00,SystemResetWarning,0834.9,5.00,000.00,029.2,025.5,000.0,037.3,030.1,34.1,0000.0,0010.52,0004.51,0003.57
2023-07-27 02:32:00,SystemResetWarning,0834.8,5.00,000.00,029.2,026.0,000.0,037.3,030.3,34.1,0000.0,0010.37,0004.47,0003.57
2023-07-27 02:33:00,SystemResetWarning,0834.7,5.00,000.00,029.2,026.4,000.0,037.4,030.4,34.0,0000.0,0010.09,0004.46,0003.58
2023-07-27 02:34:00,SystemResetWarning,0834.7,4.99,000.00,029.2,026.8,000.0,037.4,030.5,33.7,0000.0,0009.50,0004.45,0003.58
2023-07-27 02:35:00,SystemResetWarning,0834.8,5.00,000.00,029.2,027.1,000.0,037.4,030.6,33.7,0000.0,0009.45,0004.44,0003.59
2023-07-27 02:36:00,SystemResetWarning,0835.4,5.00,000.00,029.3,027.4,000.0,037.5,030.6,33.3,0000.0,0008.84,0004.42,0003.59
2023-07-27 02:37:00,SystemResetWarning,0835.3,5.01,000.00,029.3,027.6,000.0,037.5,030.7,33.4,0000.0,0008.92,0004.40,0003.58
2023-07-27 02:38:00,SystemResetWarning,0835.4,4.99,000.00,029.4,027.8,000.0,037.5,030.8,33.2,0000.0,0009.81,0004.38,0003.57
2023-07-27 02:39:00,SystemResetWarning,0835.4,4.99,000.00,029.4,027.0,000.0,037.5,030.7,32.6,0000.0,0010.25,0004.35,0003.54
2023-07-27 02:40:00,SystemResetWarning,0835.2,5.00,000.00,029.3,025.3,000.0,037.4,030.3,32.5,0000.0,0010.48,0004.32,0003.52
2023-07-27 02:41:00,SystemResetWarning,0834.8,5.00,000.00,029.2,024.5,000.0,037.3,030.1,32.6,0000.0,0010.46,0004.31,0003.50
2023-07-27 02:42:00,SystemResetWarning,0834.8,5.01,000.00,029.1,024.6,000.0,037.3,029.9,32.5,0000.0,0010.78,0004.36,0003.47
2023-07-27 02:43:00,SystemResetWarning,0834.8,5.01,000.00,029.0,025.0,000.0,037.3,030.0,32.3,0000.0,0011.24,0004.36,0003.45
2023-07-27 02:44:00,SystemResetWarning,0834.8,4.99,000.00,029.0,025.5,000.0,037.3,030.1,31.7,0000.0,0011.86,0004.37,0003.44
2023-07-27 02:45:00,SystemResetWarning,0835.4,5.00,000.00,029.0,026.0,000.0,037.3,030.2,31.8,0000.0,0011.65,0004.36,0003.43
2023-07-27 02:46:00,SystemResetWarning,0835.0,5.00,000.00,029.0,026.4,000.0,037.4,030.3,32.0,0000.0,0011.80,0004.39,0003.42
2023-07-27 02:47:00,SystemResetWarning,0835.0,5.01,000.00,029.0,026.8,000.0,037.4,030.4,32.3,0000.0,0012.36,0004.45,0003.40
2023-07-27 02:48:00,SystemResetWarning,0835.0,5.00,000.00,029.0,027.1,000.0,037.4,030.5,32.0,0000.0,0012.78,0004.49,0003.40
2023-07-27 02:49:00,SystemResetWarning,0835.0,4.99,000.00,029.1,027.4,000.0,037.4,030.6,32.3,0000.0,0012.06,0004.51,0003.41
2023-07-27 02:50:00,SystemResetWarning,0835.1,5.00,000.00,029.1,027.6,000.0,037.4,030.7,32.5,0000.0,0011.81,0004.55,0003.42
2023-07-27 02:51:00,SystemResetWarning,0835.2,5.00,000.00,029.2,027.8,000.0,037.4,030.7,32.7,0000.0,0012.63,0004.57,0003.42
2023-07-27 02:52:00,SystemResetWarning,0835.1,5.01,000.00,029.2,027.5,000.0,037.4,030.7,32.4,0000.0,0012.96,0004.60,0003.41
2023-07-27 02:53:00,SystemResetWarning,0835.1,4.98,000.00,029.2,026.0,000.0,037.3,030.5,32.4,0000.0,0012.66,0004.55,0003.42
2023-07-27 02:54:00,SystemResetWarning,0835.1,5.01,000.00,029.1,025.3,000.0,037.2,030.3,32.5,0000.0,0012.32,0004.53,0003.41
2023-07-27 02:55:00,SystemResetWarning,0835.1,5.02,000.00,029.0,025.5,000.0,037.3,030.2,32.7,0000.0,0011.65,0004.56,0003.41
2023-07-27 02:56:00,SystemResetWarning,0835.2,4.99,000.00,029.0,025.8,000.0,037.3,030.2,32.8,0000.0,0011.68,0004.58,0003.40
2023-07-27 02:57:00,SystemResetWarning,0835.3,4.99,000.00,029.0,026.3,000.0,037.3,030.3,32.8,0000.0,0011.77,0004.61,0003.39
2023-07-27 02:58:00,SystemResetWarning,0835.3,5.01,000.00,029.0,026.6,000.0,037.4,030.4,32.9,0000.0,0011.68,0004.59,0003.38
2023-07-27 02:59:00,SystemResetWarning,0835.3,5.01,000.00,029.0,027.0,000.0,037.4,030.5,33.0,0000.0,0012.33,0004.56,0003.38
